Regional Weather Roundup
Issued by NWS Green Bay, WI

Home | Current Version | Previous Version | Graphics & Text | Print | Product List | Glossary Off
Versions: 1 2 3 4 5 6 7 8 9 10 11 12 13 14 15 16 17 18 19 20 21 22 23 24 25 26 27 28 29 30 31 32 33 34 35 36 37 38 39 40 41 42 43 44 45 46 47 48 49 50

000
ASUS43 KGRB 101510
RWRGRB

NORTH-CENTRAL AND NORTHEAST WISCONSIN REGIONAL WEATHER ROUNDUP
NATIONAL WEATHER SERVICE GREEN BAY WI
1000 AM CDT THU JUL 10 2014

WIZ005-009-010>012-018-019-101600-
NORTH CENTRAL WISCONSIN

CITY           SKY/WX    TMP DP  RH WIND       PRES   REMARKS
IRONWOOD       NOT AVBL
MANITOWISH WTR SUNNY     67  54  63 S6        30.14S
ARBOR VITAE    SUNNY     69  54  58 S8        30.14F
EAGLE RIVER    SUNNY     66  50  56 SW5       30.15S
LAND O LAKES   SUNNY     67  49  51 SW6       30.15S
RHINELANDER    SUNNY     67  52  58 SW9       30.16S
PHILLIPS       SUNNY     68  55  63 S10       30.13S
ANTIGO         SUNNY     66  54  65 S6        30.17S
TOMAHAWK       SUNNY     67  53  60 CALM      30.15F
MERRILL        SUNNY     68  54  60 S6        30.15S
$$

WIZ013-073-101600-
NORTHEAST WISCONSIN

CITY           SKY/WX    TMP DP  RH WIND       PRES   REMARKS
IRON MOUNTAIN  SUNNY     69  49  48 SW8       30.15S
MARINETTE      SUNNY     66  54  63 SE3       30.16R
OCONTO         SUNNY     67  55  65 S6        30.16S
$$

WIZ017-030-035>037-045-101600-
CENTRAL WISCONSIN

CITY           SKY/WX    TMP DP  RH WIND       PRES   REMARKS
MEDFORD        SUNNY     68  56  66 S8        30.14S
WAUSAU         SUNNY     69  53  56 S8        30.14S
MOSINEE        SUNNY     66  55  68 S9        30.16S
MARSHFIELD     SUNNY     69  57  65 S9        30.14S
WISC RAPIDS    SUNNY     72  54  53 S9        30.15F
STEVENS POINT  SUNNY     69  52  54 S10       30.16S
WAUPACA        SUNNY     72  55  54 SW6       30.16S
SHAWANO        SUNNY     71  53  54 S5        30.16S
CLINTONVILLE   SUNNY     70  52  52 S5        30.15S
$$

WIZ038-039-048-051-101600-
FOX VALLEY

CITY           SKY/WX    TMP DP  RH WIND       PRES   REMARKS
NWS GREEN BAY  SUNNY     69  53  56 S8        30.16S
APPLETON       SUNNY     70  48  46 VRB5      30.17R
OSHKOSH        SUNNY     71  54  54 S5        30.16S
FOND DU LAC    SUNNY     71  52  50 VRB6      30.17R
$$

WIZ022-050-052-101600-
EAST CENTRAL WISCONSIN

CITY           SKY/WX    TMP DP  RH WIND       PRES   REMARKS
STURGEON BAY   SUNNY     66  54  63 S6        30.18R
MANITOWOC      SUNNY     64  57  78 SE7       30.18R
SHEBOYGAN      SUNNY     66  58  75 S6        30.18R
$$

LMZ563-521-522-541>543-101600-
LAKESHORE

STATION/POSITION TIME  TEMP    WIND        PRES    VSBY  WAVE
                       AIR SEA DIR/SP/G                  HT/PER
                 (UTC) (F)     (DEG/KT/KT) (MB)    (MI)  (FT/S)
SHEBOYGAN LKSHOR 1500   58     140/  3/  4 1022.4R
KEWAUNEE LKSHORE 1500   51     150/  5/  7 1022.6S
NORTHPORT PIER   1500   62     150/  9/ 12 1021.3S
N MID LAKE BUOY  1500   55 54  180/  8/  8 1021.6R         0
MENOMINEE LKSHOR 1500   63     120/  6/  7 1021.9F
$$


USA.gov is the U.S. government's official web portal to all federal, state and local government web resources and services.